Weather History for Oslo Airport, Norway

Change the Weather History Date:

Wednesday, April 17, 2013

  Actual Average Record
Temperature  
Mean Temperature 46 °F -  
Max Temperature 55 °F 52 °F 60 °F (2003)
Min Temperature 37 °F 35 °F 30 °F (1997)
Degree Days  
Heating Degree Days 19    
Moisture  
Dew Point 34 °F    
Average Humidity 72    
Maximum Humidity 100    
Minimum Humidity 30    
Precipitation  
Precipitation 0.00 in 0.07 in - ()
Sea Level Pressure  
Sea Level Pressure 29.70 in    
Wind  
Wind Speed 13 mph ()    
Max Wind Speed 25 mph    
Max Gust Speed 32 mph    
Visibility 6.1 miles    
Events Rain    
Averages and records for this station are not official NWS values.
T = Trace of Precipitation, MM = Missing Value Source: Averaged Metar Reports

Daily Weather History Graph

Daily Weather History Graph

Search for Another Location

Airport:

Trip Planner

Search our weather history database for the weather conditions in past years. The results will help you decide how hot, cold, wet, or windy it might be!

Date:

Astronomy

Apr. 17, 2013 Rise Set
Actual Time 5:52 AM CEST 8:39 PM CEST
Civil Twilight 5:05 AM CEST 9:27 PM CEST
Nautical Twilight 4:01 AM CEST 10:32 PM CEST
Astronomical Twilight 2:24 AM CEST 12:14 AM CEST
Moon 10:14 AM CEST (4/17) 2:43 AM CEST (4/17)
Length of Visible Light 16h 22m
Length of Day
14h 47m
Waxing Crescent, 40% of the Moon is Illuminated
Apr 17
Waxing Crescent
Apr 18
First Quarter
Apr 25
Full
May 2
Last Quarter
May 10
New

Hourly Weather History & Observations

Time (CEST) Temp. Windchill Dew Point Humidity Pressure Visibility Wind Dir Wind Speed Gust Speed Precip Events Conditions
12:20 AM 41.0 °F 34.7 °F 39.2 °F 93% 29.68 in 3.7 mi South 10.4 mph - N/A   Mostly Cloudy
12:50 AM 41.0 °F 33.9 °F 39.2 °F 93% 29.68 in 4.3 mi South 12.7 mph - N/A   Mostly Cloudy
1:20 AM 41.0 °F 33.9 °F 39.2 °F 93% 29.68 in 4.3 mi South 12.7 mph - N/A   Mostly Cloudy
1:50 AM 39.2 °F 30.8 °F 37.4 °F 93% 29.65 in 5.0 mi South 15.0 mph - N/A   Mostly Cloudy
2:00 AM 40 °F - 38 °F 91%  in 5 mi South 15.7 mph - -   Mist
2:20 AM 39.2 °F 30.2 °F 37.4 °F 93% 29.65 in 5.0 mi South 17.3 mph - N/A   Mostly Cloudy
2:50 AM 39.2 °F 29.8 °F 37.4 °F 93% 29.65 in 4.3 mi South 18.4 mph - N/A   Mostly Cloudy
3:20 AM 39.2 °F 31.6 °F 37.4 °F 93% 29.65 in 5.0 mi South 12.7 mph - N/A   Mostly Cloudy
3:50 AM 39.2 °F 33.0 °F 37.4 °F 93% 29.65 in 5.6 mi South 9.2 mph - N/A   Mostly Cloudy
4:20 AM 39.2 °F 31.6 °F 37.4 °F 93% 29.65 in 6.2 mi South 12.7 mph - N/A   Overcast
4:50 AM 39.2 °F 30.8 °F 35.6 °F 87% 29.65 in 5.6 mi South 15.0 mph - N/A   Overcast
5:20 AM 37.4 °F 27.8 °F 37.4 °F 100% 29.65 in 5.6 mi South 17.3 mph - N/A   Overcast
5:50 AM 37.4 °F 28.9 °F 35.6 °F 93% 29.62 in 5.6 mi South 13.8 mph - N/A   Mostly Cloudy
6:20 AM 37.4 °F 28.2 °F 35.6 °F 93% 29.62 in 6.2 mi South 16.1 mph - N/A   Mostly Cloudy
6:50 AM 37.4 °F 28.9 °F 35.6 °F 93% 29.62 in 6.2 mi South 13.8 mph - N/A   Mostly Cloudy
7:20 AM 37.4 °F 28.5 °F 35.6 °F 93% 29.65 in 6.2 mi SSW 15.0 mph - N/A   Mostly Cloudy
7:50 AM 39.2 °F 30.2 °F 35.6 °F 87% 29.65 in 6.2 mi South 17.3 mph - N/A   Mostly Cloudy
8:00 AM 39 °F - 36 °F 87%  in 19 mi SSW 15.7 mph - -   Partly Cloudy
8:20 AM 39.2 °F 30.2 °F 35.6 °F 87% 29.65 in 6.2 mi SSW 17.3 mph - N/A   Mostly Cloudy
8:50 AM 39.2 °F 30.5 °F 35.6 °F 87% 29.65 in 6.2 mi SSW 16.1 mph - N/A   Mostly Cloudy
9:20 AM 41.0 °F 33.1 °F 37.4 °F 87% 29.65 in 6.2 mi SSW 15.0 mph - N/A   Mostly Cloudy
9:50 AM 41.0 °F 33.1 °F 37.4 °F 87% 29.65 in 6.2 mi SSW 15.0 mph - N/A   Mostly Cloudy
10:20 AM 42.8 °F 35.1 °F 37.4 °F 81% 29.68 in 6.2 mi SSW 16.1 mph - N/A   Mostly Cloudy
10:50 AM 42.8 °F 34.8 °F 37.4 °F 81% 29.68 in 6.2 mi SSW 17.3 mph - N/A   Scattered Clouds
11:20 AM 42.8 °F 34.5 °F 35.6 °F 76% 29.68 in 6.2 mi SSW 18.4 mph - N/A   Scattered Clouds
11:50 AM 44.6 °F 36.6 °F 37.4 °F 76% 29.68 in - SSW 19.6 mph - N/A   Clear
12:20 PM 48.2 °F - 37.4 °F 66% 29.68 in 6.2 mi SSW 19.6 mph - N/A   Partly Cloudy
12:50 PM 48.2 °F - 37.4 °F 66% 29.71 in 6.2 mi SSW 21.9 mph - N/A   Partly Cloudy
1:20 PM 50.0 °F - 35.6 °F 58% 29.71 in - SSW 20.7 mph - N/A   Clear
1:50 PM 50.0 °F - 35.6 °F 58% 29.71 in - SW 19.6 mph - N/A   Clear
2:00 PM 51 °F - 37 °F 47%  in 34 mi SW 24.6 mph - -   Partly Cloudy
2:20 PM 51.8 °F - 35.6 °F 54% 29.71 in - SW 20.7 mph - N/A   Clear
2:50 PM 51.8 °F - 35.6 °F 54% 29.71 in - SSW 17.3 mph - N/A   Clear
3:20 PM 51.8 °F - 32.0 °F 47% 29.74 in - SSW 19.6 mph - N/A   Clear
4:20 PM 55.4 °F - 24.8 °F 31% 29.74 in - SW 11.5 mph - N/A   Clear
4:50 PM 53.6 °F - 24.8 °F 33% 29.74 in - SW 18.4 mph 32.2 mph N/A   Clear
5:20 PM 53.6 °F - 24.8 °F 33% 29.77 in - WSW 10.4 mph - N/A   Clear
5:50 PM 51.8 °F - 24.8 °F 35% 29.77 in - SW 8.1 mph - N/A   Clear
6:20 PM 51.8 °F - 21.2 °F 30% 29.77 in - SW 9.2 mph - N/A   Clear
6:50 PM 50.0 °F - 23.0 °F 35% 29.77 in - SW 4.6 mph - N/A   Clear
7:20 PM 48.2 °F - 28.4 °F 46% 29.77 in - SSW 6.9 mph - N/A   Clear
7:50 PM 48.2 °F - 28.4 °F 46% 29.77 in - SSW 13.8 mph - N/A   Clear
8:20 PM 46.4 °F 40.1 °F 28.4 °F 50% 29.80 in - SSW 15.0 mph - N/A   Clear
8:50 PM 46.4 °F 41.9 °F 30.2 °F 53% 29.77 in - SSW 9.2 mph - N/A   Clear
9:20 PM 44.6 °F 38.4 °F 30.2 °F 57% 29.80 in - South 12.7 mph - N/A   Clear
9:50 PM 44.6 °F 38.8 °F 30.2 °F 57% 29.80 in - SSW 11.5 mph - N/A   Clear
10:50 PM 42.8 °F 35.8 °F 33.8 °F 70% 29.80 in 6.2 mi SSW 13.8 mph - N/A Rain Light Rain
11:20 PM 41.0 °F 36.4 °F 35.6 °F 81% 29.77 in 6.2 mi South 6.9 mph - N/A Rain Light Rain
11:50 PM 41.0 °F 36.4 °F 35.6 °F 81% 29.74 in 6.2 mi SSE 6.9 mph - N/A Rain Light Rain